全球卫星定位系统 GPS 68星 (NAVSTAR 68 (USA 242))

导读

NAVSTAR 68(USA 242)是美国于2013年5月15日08:00发射的GPS导航卫星,隶属于美国全球定位系统(GPS)的NAVSTAR卫星系列。该卫星主要为全球用户提供高精度的定位、导航与授时服务,广泛应用于军事、民用交通、测绘等领域,是GPS组网中补充增强定位能力的重要节点,保障了全球范围内定位服务的稳定性与覆盖精度。

基本信息
目录编号:
39166
目录名称:
NAVSTAR 68 (USA 242)
国际标识:
2013-023A
轨道中心:
EARTH
卫星名称:
GPS 68星
卫星全名:
全球卫星定位系统 GPS 68星 (NAVSTAR 68 (USA 242))
卫星状态:
在轨 (已飞行4776 天)
发射日期:
2013-05-15 UTC
国别 :
美国 (US)
星等 :
--
轨道信息
数据来源 国际轨道数据 AOE轨道数据
星历时间 2026-06-12T12:44:12+0800
13小时前
查看轨道信息
2026-06-10T01:00:00+0800
3天前
查看轨道信息
半长轴 26560.366km 26560.313km
偏心率 0.0141563 0.0141564
轨道倾角 54.508° 54.510°
近地点辐角 51.028° 51.052°
升交点赤经 269.177° 269.279°
平近点角 310.243° 313.012°
近地点 19806.232km 19806.177km
远地点 20558.226km 20558.175km
周期 717.977分钟 717.975分钟
每日圈数 2.005634 2.00564
详细信息
平衡模式:
三轴稳定
覆盖范围:
全球
运营商:
美国太空军
运营商所在国:
美国
制造商(研发单位):
波音公司
制造商所在国:
美国
使用方式:
暂无
工作目标:
提供军用及民用全球定位与导航服务。
预期寿命:
12年
卫星简介
全球定位系统(英语:Global Positioning System,通常简称GPS),又称全球卫星定位系统,是美国国防部研制,美国太空军运营与维护的中地球轨道卫星导航系统。它可以为地球表面约98%的地区提供准确的定位、测速和高精度的标准时间。全球定位系统可满足位于全球地面任何一处或近地空间的军事用户连续且精确地确定三维位置、三维运动和时间的需求。该系统包括太空中的31颗GPS人造卫星.该卫星仍在工作。
2D轨道图
3D轨道图
轨道高度分析图
轨道倾角分析图
轨道综合分析图
查看轨道综合分析图